BC, British Columbia

2:14 AM EST on December 08, 2016 (GMT -0500)
Hall Beach

Weather History for CYUX - September, 2012

Change the Weather History Date:

Thursday, September 20, 2012

  Actual Average Record
Temperature  
Mean Temperature 34 °F -  
Max Temperature 35 °F 25 °F 39 °F (1998)
Min Temperature 32 °F 15 °F 23 °F (1997)
Degree Days  
Heating Degree Days 32    
Moisture  
Dew Point 33 °F    
Average Humidity 100    
Maximum Humidity 100    
Minimum Humidity 93    
Precipitation  
Precipitation 0.00 in 0.03 in - ()
Sea Level Pressure  
Sea Level Pressure 29.62 in    
Wind  
Wind Speed 6 mph ()    
Max Wind Speed 12 mph    
Max Gust Speed -    
Visibility 4.9 miles    
Events Fog , Rain    
Averages and records for this station are not official NWS values.
T = Trace of Precipitation, MM = Missing Value Source: Averaged Metar Reports

Daily Weather History Graph

Daily Weather History Graph

Search for Another Location

Airport or City:

Trip Planner

Search our weather history database for the weather conditions in past years. The results will help you decide how hot, cold, wet, or windy it might be!

Date:

Astronomy

Sep. 20, 2012 Rise Set
Actual Time 7:00 AM EDT 7:33 PM EDT
Civil Twilight 6:01 AM EDT 8:31 PM EDT
Nautical Twilight 4:46 AM EDT 9:45 PM EDT
Astronomical Twilight 3:04 AM EDT 11:24 PM EDT
Moon 4:15 PM EDT (9/20) 6:34 PM EDT (9/20)
Length of Visible Light 14h 30m
Length of Day
12h 33m
Waxing Crescent, 26% of the Moon is Illuminated
Sep 20
Waxing Crescent
Sep 22
First Quarter
Sep 29
Full
Oct 8
Last Quarter
Oct 15
New

Hourly Weather History & Observations

Time (EDT) Temp. Windchill Dew Point Humidity Pressure Visibility Wind Dir Wind Speed Gust Speed Precip Events Conditions
12:00 AM 33.8 °F 28.6 °F 33.8 °F 100% 29.57 in 6.0 mi ENE 5.8 mph - N/A   Overcast
12:01 AM 33.8 °F 28.6 °F 33.8 °F 100% 29.57 in 5.0 mi ENE 5.8 mph - N/A   Overcast
12:09 AM 33.8 °F 28.6 °F 33.8 °F 100% 29.57 in 2.5 mi ENE 5.8 mph - N/A   Overcast
12:10 AM 33.8 °F 28.6 °F 33.8 °F 100% 29.57 in 2.5 mi ENE 5.8 mph - N/A   Overcast
12:15 AM 33.8 °F 29.6 °F 33.8 °F 100% 29.57 in 1.8 mi ENE 4.6 mph - N/A   Overcast
12:23 AM 33.8 °F 29.6 °F 33.8 °F 100% 29.57 in 1.2 mi NE 4.6 mph - N/A   Overcast
12:37 AM 33.8 °F 29.6 °F 33.8 °F 100% 29.57 in 1.0 mi ENE 4.6 mph - N/A   Overcast
12:53 AM 33.8 °F 29.6 °F 33.8 °F 100% 29.57 in 1.2 mi NE 4.6 mph - N/A   Overcast
12:54 AM 33.8 °F 29.6 °F 33.8 °F 100% 29.57 in 1.2 mi NE 4.6 mph - N/A   Overcast
1:00 AM 33.8 °F 29.6 °F 33.8 °F 100% 29.57 in 1.5 mi NE 4.6 mph - N/A   Overcast
1:11 AM 33.8 °F 29.6 °F 33.8 °F 100% 29.57 in 1.8 mi NE 4.6 mph - N/A   Overcast
1:21 AM 32.0 °F 27.5 °F 32.0 °F 100% 29.57 in 2.2 mi NE 4.6 mph - N/A   Overcast
1:23 AM 32.0 °F 27.5 °F 32.0 °F 100% 29.57 in 3.0 mi NE 4.6 mph - N/A   Overcast
1:27 AM 32.0 °F 27.5 °F 32.0 °F 100% 29.57 in 7.0 mi NE 4.6 mph - N/A   Overcast
1:35 AM 32.0 °F 27.5 °F 32.0 °F 100% 29.57 in 5.0 mi NE 4.6 mph - N/A   Overcast
1:40 AM 32.0 °F 26.4 °F 32.0 °F 100% 29.57 in 3.0 mi NE 5.8 mph - N/A   Overcast
1:42 AM 32.0 °F 26.4 °F 32.0 °F 100% 29.57 in 2.2 mi NE 5.8 mph - N/A   Overcast
1:43 AM 32.0 °F 26.4 °F 32.0 °F 100% 29.57 in 2.2 mi NE 5.8 mph - N/A   Overcast
1:45 AM 32.0 °F 27.5 °F 32.0 °F 100% 29.57 in 2.2 mi NE 4.6 mph - N/A   Overcast
1:46 AM 32.0 °F 27.5 °F 32.0 °F 100% 29.57 in 1.8 mi NE 4.6 mph - N/A   Overcast
1:49 AM 33.8 °F 28.6 °F 33.8 °F 100% 29.58 in 1.2 mi NE 5.8 mph - N/A   Overcast
1:52 AM 33.8 °F 28.6 °F 33.8 °F 100% 29.58 in 1.0 mi NE 5.8 mph - N/A   Overcast
2:00 AM 33.8 °F 28.6 °F 33.8 °F 100% 29.57 in 0.8 mi NE 5.8 mph - N/A   Overcast
2:09 AM 32.0 °F 26.4 °F 32.0 °F 100% 29.58 in 0.8 mi NE 5.8 mph - N/A Rain Light Rain
2:12 AM 32.0 °F 26.4 °F 32.0 °F 100% 29.58 in 1.2 mi NE 5.8 mph - N/A Rain Light Rain
2:17 AM 32.0 °F 26.4 °F 32.0 °F 100% 29.58 in 2.2 mi NE 5.8 mph - N/A Rain Light Rain
2:18 AM 32.0 °F 26.4 °F 32.0 °F 100% 29.58 in 2.5 mi NE 5.8 mph - N/A   Overcast
2:20 AM 32.0 °F 25.6 °F 32.0 °F 100% 29.58 in 3.0 mi NE 6.9 mph - N/A   Overcast
2:23 AM 32.0 °F 26.4 °F 32.0 °F 100% 29.58 in 3.0 mi NE 5.8 mph - N/A   Overcast
2:27 AM 32.0 °F 25.6 °F 32.0 °F 100% 29.58 in 7.0 mi NE 6.9 mph - N/A   Overcast
3:00 AM 32.0 °F 27.5 °F 32.0 °F 100% 29.58 in 9.0 mi NE 4.6 mph - N/A   Overcast
3:27 AM 32.0 °F 27.5 °F 32.0 °F 100% 29.58 in 9.0 mi NE 4.6 mph - N/A   Overcast
3:38 AM 32.0 °F 27.5 °F 32.0 °F 100% 29.58 in 9.0 mi NNE 4.6 mph - N/A   Overcast
3:58 AM 32.0 °F 26.4 °F 32.0 °F 100% 29.58 in 5.0 mi North 5.8 mph - N/A   Overcast
4:00 AM 32.0 °F 25.6 °F 32.0 °F 100% 29.58 in 2.5 mi North 6.9 mph - N/A   Overcast
4:02 AM 32.0 °F 25.6 °F 32.0 °F 100% 29.58 in 2.0 mi North 6.9 mph - N/A   Overcast
4:07 AM 32.0 °F 26.4 °F 32.0 °F 100% 29.58 in 1.0 mi North 5.8 mph - N/A   Overcast
4:11 AM 32.0 °F 26.4 °F 32.0 °F 100% 29.58 in 1.0 mi NNE 5.8 mph - N/A Rain Light Rain
4:23 AM 32.0 °F 25.6 °F 32.0 °F 100% 29.58 in 1.0 mi North 6.9 mph - N/A Rain Light Rain
4:26 AM 32.0 °F 25.6 °F 32.0 °F 100% 29.58 in 1.0 mi North 6.9 mph - N/A   Overcast
4:29 AM 32.0 °F 25.6 °F 32.0 °F 100% 29.58 in 1.2 mi North 6.9 mph - N/A   Overcast
4:33 AM 32.0 °F 25.6 °F 32.0 °F 100% 29.58 in 1.2 mi North 6.9 mph - N/A   Overcast
4:36 AM 32.0 °F 25.6 °F 32.0 °F 100% 29.59 in 1.0 mi North 6.9 mph - N/A   Overcast
4:38 AM 32.0 °F 25.6 °F 32.0 °F 100% 29.59 in 1.0 mi North 6.9 mph - N/A Rain Light Rain
4:59 AM 32.0 °F 26.4 °F 32.0 °F 100% 29.59 in 1.5 mi North 5.8 mph - N/A Rain Light Rain
5:01 AM 32.0 °F 25.6 °F 32.0 °F 100% 29.59 in 2.0 mi North 6.9 mph - N/A   Overcast
5:02 AM 32.0 °F 25.6 °F 32.0 °F 100% 29.58 in 2.5 mi North 6.9 mph - N/A   Overcast
5:03 AM 32.0 °F 25.6 °F 32.0 °F 100% 29.58 in 3.0 mi North 6.9 mph - N/A   Overcast
5:04 AM 32.0 °F 26.4 °F 32.0 °F 100% 29.58 in 3.0 mi North 5.8 mph - N/A   Overcast
5:11 AM 32.0 °F 25.6 °F 32.0 °F 100% 29.58 in 2.2 mi North 6.9 mph - N/A   Mostly Cloudy
5:25 AM 32.0 °F 25.6 °F 32.0 °F 100% 29.58 in 3.0 mi North 6.9 mph - N/A   Mostly Cloudy
5:29 AM 32.0 °F 26.4 °F 32.0 °F 100% 29.58 in 6.0 mi North 5.8 mph - N/A   Scattered Clouds
5:33 AM 32.0 °F 26.4 °F 32.0 °F 100% 29.59 in 5.0 mi North 5.8 mph - N/A   Mostly Cloudy
5:45 AM 32.0 °F 26.4 °F 32.0 °F 100% 29.59 in 3.0 mi North 5.8 mph - N/A   Mostly Cloudy
5:48 AM 32.0 °F 24.8 °F 32.0 °F 100% 29.59 in 6.0 mi North 8.1 mph - N/A   Mostly Cloudy
6:00 AM 32.0 °F 25.6 °F 32.0 °F 100% 29.59 in 7.0 mi North 6.9 mph - N/A   Overcast
6:13 AM 32.0 °F 26.4 °F 32.0 °F 100% 29.59 in 9.0 mi North 5.8 mph - N/A   Overcast
6:23 AM 32.0 °F 26.4 °F 32.0 °F 100% 29.59 in 9.0 mi North 5.8 mph - N/A   Overcast
6:40 AM 32.0 °F 24.8 °F 32.0 °F 100% 29.60 in 4.0 mi North 8.1 mph - N/A   Overcast
6:42 AM 32.0 °F 24.8 °F 32.0 °F 100% 29.60 in 2.2 mi North 8.1 mph - N/A   Overcast
6:43 AM 32.0 °F 24.8 °F 32.0 °F 100% 29.60 in 1.8 mi North 8.1 mph - N/A   Overcast
6:47 AM 32.0 °F 24.8 °F 32.0 °F 100% 29.60 in 1.0 mi North 8.1 mph - N/A   Overcast
6:52 AM 32.0 °F 24.8 °F 32.0 °F 100% 29.60 in 1.2 mi North 8.1 mph - N/A   Overcast
6:55 AM 32.0 °F 24.8 °F 32.0 °F 100% 29.60 in 2.2 mi North 8.1 mph - N/A   Overcast
6:58 AM 32.0 °F 24.8 °F 32.0 °F 100% 29.60 in 3.0 mi North 8.1 mph - N/A   Overcast
7:00 AM 32.0 °F 24.8 °F 32.0 °F 100% 29.60 in 3.0 mi North 8.1 mph - N/A   Overcast
7:01 AM 32.0 °F 25.6 °F 32.0 °F 100% 29.60 in 3.0 mi North 6.9 mph - N/A Rain Light Rain
7:03 AM 32.0 °F 25.6 °F 32.0 °F 100% 29.60 in 2.2 mi North 6.9 mph - N/A Rain Light Rain
7:08 AM 32.0 °F 24.8 °F 32.0 °F 100% 29.60 in 3.0 mi North 8.1 mph - N/A Rain Light Rain
7:13 AM 32.0 °F 24.8 °F 32.0 °F 100% 29.60 in 7.0 mi North 8.1 mph - N/A Rain Light Rain
7:22 AM 32.0 °F 24.8 °F 32.0 °F 100% 29.60 in 9.0 mi North 8.1 mph - N/A   Overcast
7:33 AM 32.0 °F 24.8 °F 32.0 °F 100% 29.60 in 5.0 mi North 8.1 mph - N/A   Overcast
7:46 AM 32.0 °F 24.8 °F 32.0 °F 100% 29.60 in 6.0 mi North 8.1 mph - N/A   Overcast
7:50 AM 32.0 °F 24.8 °F 32.0 °F 100% 29.60 in 9.0 mi North 8.1 mph - N/A   Overcast
7:51 AM 32.0 °F 24.8 °F 32.0 °F 100% 29.60 in 9.0 mi North 8.1 mph - N/A   Overcast
7:56 AM 32.0 °F 25.6 °F 32.0 °F 100% 29.61 in 9.0 mi North 6.9 mph - N/A   Overcast
7:58 AM 32.0 °F 24.8 °F 32.0 °F 100% 29.61 in 9.0 mi North 8.1 mph - N/A   Overcast
7:59 AM 32.0 °F 24.8 °F 32.0 °F 100% 29.61 in 9.0 mi North 8.1 mph - N/A   Overcast
8:00 AM 32.0 °F 25.6 °F 32.0 °F 100% 29.61 in 6.0 mi North 6.9 mph - N/A   Light Drizzle
9:00 AM 32.0 °F 25.6 °F 32.0 °F 100% 29.60 in 2.5 mi North 6.9 mph - N/A   Light Drizzle
9:25 AM 32.0 °F 25.6 °F 32.0 °F 100% 29.61 in 10.0 mi North 6.9 mph - N/A Fog Mostly Cloudy
10:00 AM 32.0 °F 24.2 °F - N/A% - 12.0 mi North 9.2 mph - N/A Fog Overcast
11:00 AM 33.8 °F 27.0 °F 33.8 °F 100% 29.62 in 12.0 mi North 8.1 mph - N/A Fog Overcast
12:00 PM 33.8 °F 27.7 °F 33.8 °F 100% 29.63 in 3.0 mi North 6.9 mph - N/A   Mostly Cloudy
1:00 PM 33.8 °F 27.7 °F 33.8 °F 100% 29.64 in 12.0 mi North 6.9 mph - N/A Fog Mostly Cloudy
1:42 PM 35.6 °F 28.6 °F 33.8 °F 93% 29.65 in 15.0 mi North 9.2 mph - N/A   Scattered Clouds
2:00 PM 35.6 °F 28.6 °F 33.8 °F 93% 29.66 in 15.0 mi North 9.2 mph - N/A   Scattered Clouds
2:16 PM 35.6 °F 28.6 °F 33.8 °F 93% 29.67 in 15.0 mi North 9.2 mph - N/A   Scattered Clouds
3:00 PM 35.6 °F 29.2 °F 35.6 °F 100% 29.68 in 3.0 mi North 8.1 mph - N/A   Mostly Cloudy
4:00 PM 35.6 °F 28.6 °F 35.6 °F 100% 29.70 in 1.5 mi North 9.2 mph - N/A   Light Drizzle
4:23 PM 35.6 °F 29.9 °F 35.6 °F 100% 29.71 in 0.4 mi NNE 6.9 mph - N/A Fog Light Drizzle
4:42 PM 35.6 °F 30.7 °F 35.6 °F 100% 29.71 in 0.8 mi North 5.8 mph - N/A   Light Drizzle
5:00 PM 35.6 °F 29.9 °F 35.6 °F 100% 29.72 in 2.0 mi NNE 6.9 mph - N/A   Light Drizzle
5:09 PM 35.6 °F - 35.6 °F 100% 29.72 in 12.0 mi North - - N/A Fog Mostly Cloudy
6:00 PM 35.6 °F 31.7 °F 35.6 °F 100% 29.74 in 12.0 mi North 4.6 mph - N/A Fog Mostly Cloudy
7:00 PM 35.6 °F 32.8 °F 33.8 °F 93% 29.75 in 15.0 mi North 3.5 mph - N/A   Scattered Clouds
8:00 PM 33.8 °F 30.8 °F 33.8 °F 100% 29.77 in 15.0 mi WNW 3.5 mph - N/A   Partly Cloudy
8:43 PM 32.0 °F 26.4 °F 32.0 °F 100% 29.79 in 9.0 mi West 5.8 mph - N/A   Mostly Cloudy
9:00 PM 33.8 °F 27.0 °F 33.8 °F 100% 29.80 in 9.0 mi WNW 8.1 mph - N/A   Overcast
10:00 PM 33.8 °F 26.4 °F 33.8 °F 100% 29.81 in 9.0 mi WNW 9.2 mph - N/A   Overcast
10:41 PM 33.8 °F 26.4 °F 33.8 °F 100% 29.83 in 9.0 mi WNW 9.2 mph - N/A   Overcast
11:00 PM 33.8 °F 25.8 °F 33.8 °F 100% 29.83 in 9.0 mi WNW 10.4 mph - N/A   Overcast
11:16 PM 33.8 °F 25.8 °F 33.8 °F 100% 29.83 in 9.0 mi WNW 10.4 mph - N/A   Overcast
11:59 PM 33.8 °F 25.3 °F 32.0 °F 93% 29.84 in 9.0 mi WNW 11.5 mph - N/A   Mostly Cloudy